Saint John's, Newfoundland

6:32 PM NDT on September 25, 2016 (GMT -0230)
St. John's International

Weather History for CYYT - October, 2012

Change the Weather History Date:

Sunday, October 28, 2012

  Actual Average Record
Temperature  
Mean Temperature 48 °F -  
Max Temperature 50 °F 45 °F 64 °F (2003)
Min Temperature 46 °F 35 °F 23 °F (1999)
Degree Days  
Heating Degree Days 17    
Moisture  
Dew Point 49 °F    
Average Humidity 100    
Maximum Humidity 100    
Minimum Humidity 98    
Precipitation  
Precipitation 0.04 in - - ()
Sea Level Pressure  
Sea Level Pressure 30.07 in    
Wind  
Wind Speed 17 mph ()    
Max Wind Speed 25 mph    
Max Gust Speed 37 mph    
Visibility 0.1 miles    
Events Fog , Rain    
Averages and records for this station are not official NWS values.
T = Trace of Precipitation, MM = Missing Value Source: Averaged Metar Reports

Daily Weather History Graph

Daily Weather History Graph

Search for Another Location

Airport or City:

Trip Planner

Search our weather history database for the weather conditions in past years. The results will help you decide how hot, cold, wet, or windy it might be!

Date:

Astronomy

Oct. 28, 2012 Rise Set
Actual Time 7:39 AM NDT 5:49 PM NDT
Civil Twilight 7:07 AM NDT 6:21 PM NDT
Nautical Twilight 6:31 AM NDT 6:57 PM NDT
Astronomical Twilight 5:55 AM NDT 7:32 PM NDT
Moon 5:04 PM NDT (10/28) 6:24 AM NDT (10/28)
Length of Visible Light 11h 13m
Length of Day
10h 09m
Waxing Gibbous, 99% of the Moon is Illuminated
Oct 28
Waxing Gibbous
Oct 29
Full
Nov 6
Last Quarter
Nov 13
New
Nov 20
First Quarter

Hourly Weather History & Observations

Time (NDT) Temp. Windchill Dew Point Humidity Pressure Visibility Wind Dir Wind Speed Gust Speed Precip Events Conditions
12:30 AM 46.4 °F 40.1 °F 46.4 °F 100% 29.91 in 0.1 mi NNE 15.0 mph 21.9 mph N/A Fog Light Drizzle
1:30 AM 48.2 °F - 48.2 °F 100% 29.92 in 0.2 mi NE 18.4 mph - N/A Fog Light Drizzle
2:30 AM 48.2 °F - 48.2 °F 100% 29.94 in 0.5 mi NE 18.4 mph 26.5 mph N/A Fog , Rain Light Rain
2:48 AM 48.2 °F - 48.2 °F 100% 29.94 in 0.4 mi NE 21.9 mph 28.8 mph N/A Fog Light Drizzle
3:10 AM 50.0 °F - 50.0 °F 100% 29.94 in 0.2 mi ENE 23.0 mph 33.4 mph N/A Fog Light Drizzle
3:30 AM 50 °F - 50 °F 99% 29.95 in 0 mi ENE 21.9 mph - - Rain Light Drizzle
3:30 AM 50.0 °F - 50.0 °F 100% 29.95 in 0.2 mi ENE 23.0 mph 33.4 mph N/A Fog Light Drizzle
4:30 AM 50.0 °F - 50.0 °F 100% 29.96 in 0.2 mi ENE 23.0 mph 35.7 mph N/A Fog Light Drizzle
5:30 AM 50.0 °F - 50.0 °F 100% 29.98 in 0.2 mi NE 19.6 mph 32.2 mph N/A Fog Light Drizzle
6:30 AM 50.0 °F - 50.0 °F 100% 29.99 in 0.2 mi NE 17.3 mph 31.1 mph N/A Fog Light Drizzle
7:09 AM 50.0 °F - 50.0 °F 100% 30.00 in 0.6 mi ENE 23.0 mph 33.4 mph N/A   Light Drizzle
7:30 AM 50.0 °F - 50.0 °F 100% 30.01 in 0.4 mi ENE 20.7 mph 36.8 mph N/A Fog Light Drizzle
8:30 AM 50.0 °F - 50.0 °F 100% 30.04 in 0.4 mi ENE 21.9 mph 33.4 mph N/A Fog Light Drizzle
9:14 AM 50.0 °F - 50.0 °F 100% 30.05 in 0.1 mi East 25.3 mph 35.7 mph N/A Fog Light Drizzle
9:30 AM 50 °F - 50 °F 99% 30.06 in 0 mi ENE 24.2 mph - - Rain Light Drizzle
9:30 AM 50.0 °F - 50.0 °F 100% 30.06 in 0.1 mi ENE 25.3 mph 35.7 mph N/A Fog Light Drizzle
10:30 AM 50.0 °F - 50.0 °F 100% 30.08 in 0.0 mi ENE 25.3 mph 35.7 mph N/A Fog Light Drizzle
11:30 AM 50.0 °F - 50.0 °F 100% 30.09 in 0.0 mi ENE 19.6 mph 32.2 mph N/A Fog Light Drizzle
12:30 PM 50.0 °F - 50.0 °F 100% 30.10 in 0.0 mi NE 20.7 mph 32.2 mph N/A Fog Light Drizzle
1:30 PM 50.0 °F - 50.0 °F 100% 30.11 in 0.0 mi NE 16.1 mph 24.2 mph N/A   Light Drizzle
2:30 PM 48.2 °F - 48.2 °F 100% 30.12 in 0.0 mi NE 13.8 mph 21.9 mph N/A Fog Light Drizzle
3:30 PM 49 °F - 49 °F 100% 30.13 in 0 mi NE 18.4 mph - - Rain Light Drizzle
3:30 PM 50.0 °F - 50.0 °F 100% 30.13 in 0.0 mi NE 17.3 mph 25.3 mph N/A Fog Light Drizzle
4:30 PM 50.0 °F - 50.0 °F 100% 30.13 in 0.0 mi ENE 18.4 mph 25.3 mph N/A Fog Light Drizzle
5:30 PM 50.0 °F - 50.0 °F 100% 30.14 in 0.1 mi ENE 17.3 mph 26.5 mph N/A Fog Light Drizzle
6:30 PM 50.0 °F - 50.0 °F 100% 30.17 in 0.1 mi ENE 15.0 mph 23.0 mph N/A Fog Light Drizzle
7:30 PM 48.2 °F - 48.2 °F 100% 30.18 in 0.1 mi ENE 17.3 mph 23.0 mph N/A Fog Light Drizzle
8:30 PM 48.2 °F - 48.2 °F 100% 30.21 in 0.1 mi East 12.7 mph 18.4 mph N/A Fog Light Drizzle
9:30 PM 48 °F - 48 °F 98% 30.23 in 0 mi East 9.2 mph - - Rain Light Drizzle
9:30 PM 48.2 °F - 48.2 °F 100% 30.23 in 0.1 mi East 10.4 mph - N/A Fog Light Drizzle
10:30 PM 48.2 °F - 48.2 °F 100% 30.24 in 0.1 mi East 10.4 mph - N/A Fog Light Drizzle
11:30 PM 48.2 °F - 48.2 °F 100% 30.25 in 0.1 mi ENE 10.4 mph - N/A Fog Light Drizzle